This demonstration page uses our WeatherBlox Daily Observations layout. Learn more.

40.92945, -100.16068

Hourly Observations for December 19, 2018

Temp ( °F °C ) Dew Point ( °F °C ) Humidity (%) Winds ( mph kmh ) Pressure ( in mb ) Visibility ( mi km ) Precip ( " mm )
12:15 am 00:15 Clear 30 -1.1 27 -2.6 90 90 SW 3 6 29.83 1010 10 16.09344 0 0
12:35 am 00:35 Clear 29 -1.6 26 -3.1 90 90 SSW 3 6 29.83 1010 10 16.09344 0 0
12:55 am 00:55 Clear 29 -1.9 26 -3.5 89 89 SW 5 7 29.85 1011 10 16.09344 0 0
1:15 am 01:15 Clear 31 -0.7 28 -2.4 88 88 WSW 6 9 29.83 1010 10 16.09344 0 0
1:35 am 01:35 Clear 32 0 27 -2.6 83 83 W 6 9 29.83 1010 10 16.09344 0 0
1:55 am 01:55 Clear 34 0.9 29 -1.6 84 84 W 6 9 29.77 1008 10 16.09344 0 0
2:15 am 02:15 Clear 33 0.6 28 -2.1 82 82 W 9 15 29.83 1010 10 16.09344 0 0
2:35 am 02:35 Clear 35 1.7 29 -1.8 78 78 WSW 7 11 29.77 1008 10 16.09344 0 0
2:55 am 02:55 Clear 34 1.3 29 -1.8 80 80 W 9 15 29.77 1008 10 16.09344 0 0
3:15 am 03:15 Clear 33 0.8 28 -2 82 82 WNW 8 13 29.8 1009 10 16.09344 0 0
3:35 am 03:35 Clear 32 0 27 -2.9 81 81 W 8 13 29.8 1009 10 16.09344 0 0
3:55 am 03:55 Clear 32 0 27 -2.6 83 83 W 8 13 29.8 1009 10 16.09344 0 0
4:15 am 04:15 Clear 30 -1.1 25 -3.7 83 83 WNW 6 9 29.8 1009 10 16.09344 0 0
4:35 am 04:35 Clear 30 -0.9 26 -3.2 85 85 W 3 6 29.8 1009 10 16.09344 0 0
4:55 am 04:55 Clear 31 -0.5 26 -3.3 82 82 Calm 29.8 1009 10 16.09344 0 0
5:15 am 05:15 Clear 31 -0.6 26 -3.6 80 80 Calm 29.8 1009 10 16.09344 0 0
5:35 am 05:35 Clear 29 -1.7 25 -3.8 86 86 NNW 7 11 29.77 1008 10 16.09344 0 0
5:55 am 05:55 Clear 29 -1.7 25 -4.1 84 84 WNW 6 9 29.77 1008 10 16.09344 0 0
6:15 am 06:15 Clear 28 -2.5 24 -4.6 86 86 WNW 5 7 29.83 1010 10 16.09344 0 0
6:35 am 06:35 Clear 35 1.5 30 -1.3 82 82 WNW 15 24 29.77 1008 10 16.09344 0 0
6:55 am 06:55 Clear 38 3.5 31 -0.7 74 74 WNW 15 24 29.77 1008 10 16.09344 0 0
7:15 am 07:15 Clear 38 3.2 31 -0.6 76 76 WNW 17 28 29.77 1008 10 16.09344 0 0
7:35 am 07:35 Clear 38 3.3 31 -0.5 76 76 NW 14 22 29.77 1008 10 16.09344 0 0
7:55 am 07:55 Partly Cloudy 37 3 31 -0.4 79 79 WNW 14 22 29.77 1008 10 16.09344 0 0
8:15 am 08:15 Cloudy 38 3.1 32 0 80 80 WNW 15 24 29.77 1008 10 16.09344 0 0
8:35 am 08:35 Cloudy 39 3.7 32 0.1 78 78 WNW 14 22 29.77 1008 10 16.09344 0 0
8:55 am 08:55 Cloudy 39 4 33 0.5 78 78 WNW 15 24 29.8 1009 10 16.09344 0 0
9:15 am 09:15 Cloudy with Drizzle 39 4.1 34 1 80 80 WNW 16 26 29.8 1009 10 16.09344 0 0
9:35 am 09:35 Cloudy 40 4.2 35 1.8 85 85 WNW 14 22 29.83 1010 10 16.09344 0 0
9:55 am 09:55 Cloudy with Light Drizzle 40 4.7 37 2.5 86 86 WNW 14 22 29.8 1009 10 16.09344 0 0
10:15 am 10:15 Cloudy 41 5 37 2.5 84 84 WNW 14 22 29.8 1009 10 16.09344 0 0
10:35 am 10:35 Cloudy 42 5.5 37 2.5 81 81 WNW 15 24 29.8 1009 10 16.09344 0 0
10:55 am 10:55 Cloudy 43 6.1 37 2.7 79 79 NW 14 22 29.8 1009 10 16.09344 0 0
11:15 am 11:15 Cloudy 44 6.7 37 2.7 76 76 NW 14 22 29.8 1009 10 16.09344 0 0
11:35 am 11:35 Cloudy 45 7 37 2.7 74 74 NW 15 24 29.8 1009 10 16.09344 0 0
11:55 am 11:55 Partly Cloudy 46 7.7 37 3 72 72 NW 14 22 29.74 1007 10 16.09344 0 0
12:15 pm 12:15 Sunny 48 8.8 37 2.5 65 65 NW 13 20 29.74 1007 10 16.09344 0 0
12:35 pm 12:35 Sunny 48 9.1 35 1.6 60 60 NW 16 26 29.74 1007 10 16.09344 0 0
12:55 pm 12:55 Partly Cloudy 49 9.5 34 1.2 57 57 NW 20 31 29.74 1007 10 16.09344 0 0
1:15 pm 13:15 Partly Cloudy 50 10.1 33 0.6 52 52 NW 23 37 29.74 1007 10 16.09344 0 0
1:35 pm 13:35 Partly Cloudy 50 10.2 33 0.6 52 52 NW 21 33 29.74 1007 10 16.09344 0 0
1:55 pm 13:55 Sunny 51 10.3 32 0.2 50 50 NNW 17 28 29.77 1008 10 16.09344 0 0
2:15 pm 14:15 Sunny 51 10.8 32 0.2 48 48 NNW 17 28 29.74 1007 10 16.09344 0 0
2:35 pm 14:35 Sunny 52 11 31 -0.3 46 46 NNW 20 31 29.74 1007 10 16.09344 0 0
2:55 pm 14:55 Sunny 51 10.8 32 0 48 48 NNW 15 24 29.74 1007 10 16.09344 0 0
3:15 pm 15:15 Sunny 52 11 32 -0.2 46 46 NNW 22 35 29.74 1007 10 16.09344 0 0
3:35 pm 15:35 Sunny 50 10.2 31 -0.5 48 48 NNW 18 30 29.77 1008 10 16.09344 0 0
3:55 pm 15:55 Sunny 51 10.4 32 -0.2 48 48 NW 16 26 29.8 1009 10 16.09344 0 0
4:15 pm 16:15 Sunny 50 9.8 31 -0.3 50 50 NW 16 26 29.8 1009 10 16.09344 0 0
4:35 pm 16:35 Sunny 49 9.2 31 -0.7 50 50 NW 14 22 29.83 1010 10 16.09344 0 0
4:55 pm 16:55 Sunny 46 8 31 -0.8 54 54 NW 13 20 29.85 1011 10 16.09344 0 0
5:15 pm 17:15 Clear 43 5.9 30 -1.2 61 61 NW 8 13 29.85 1011 10 16.09344 0 0
5:35 pm 17:35 Clear 38 3.5 29 -1.8 69 69 NW 8 13 29.88 1012 10 16.09344 0 0
5:55 pm 17:55 Clear 36 2.3 28 -2.1 73 73 WNW 7 11 29.88 1012 10 16.09344 0 0
6:15 pm 18:15 Clear 34 1 28 -2.5 78 78 NW 9 15 29.91 1013 10 16.09344 0 0
6:35 pm 18:35 Clear 33 0.8 28 -2.4 79 79 WNW 9 15 29.94 1014 10 16.09344 0 0
6:55 pm 18:55 Clear 34 1 29 -1.7 82 82 WNW 10 17 29.94 1014 10 16.09344 0 0
7:15 pm 19:15 Clear 35 1.4 29 -1.7 80 80 WNW 12 19 29.94 1014 10 16.09344 0 0
7:35 pm 19:35 Clear 34 1 28 -2 81 81 WNW 10 17 29.97 1015 10 16.09344 0 0
7:55 pm 19:55 Clear 37 2.5 29 -1.5 75 75 NW 9 15 29.97 1015 10 16.09344 0 0
8:15 pm 20:15 Clear 36 2.4 29 -1.7 75 75 NW 13 20 30 1016 10 16.09344 0 0
8:35 pm 20:35 Clear 36 2.4 29 -1.9 74 74 NW 9 15 30 1016 10 16.09344 0 0
8:55 pm 20:55 Clear 37 3 29 -1.7 72 72 WNW 13 20 29.97 1015 10 16.09344 0 0
9:15 pm 21:15 Clear 36 2.1 29 -1.8 76 76 WNW 12 19 30 1016 10 16.09344 0 0
9:35 pm 21:35 Clear 35 1.7 29 -1.8 78 78 WNW 13 20 30.03 1017 10 16.09344 0 0
9:55 pm 21:55 Clear 36 2 29 -1.8 76 76 WNW 14 22 30.03 1017 10 16.09344 0 0
10:15 pm 22:15 Clear 36 2 29 -1.9 76 76 WNW 14 22 30.03 1017 10 16.09344 0 0
10:35 pm 22:35 Clear 35 1.9 28 -2.1 75 75 WNW 13 20 30.06 1018 10 16.09344 0 0
10:55 pm 22:55 Clear 35 1.7 28 -2 77 77 WNW 13 20 30.06 1018 10 16.09344 0 0
11:15 pm 23:15 Clear 35 1.6 28 -2.1 77 77 WNW 14 22 30.06 1018 10 16.09344 0 0
11:35 pm 23:35 Clear 36 2.1 28 -2.1 74 74 WNW 16 26 30.06 1018 10 16.09344 0 0
11:55 pm 23:55 Clear 35 1.8 28 -2.3 75 75 WNW 17 28 30.06 1018 10 16.09344 0 0

Powered by AerisWeather